Location: St Paul
(33.4390°N, 83.7350°W)
Time: 08:12:58
(UTC-05:00)

SMAP - Pass Details

Date: 06 October 2017
Orbit: 681 x 683 km, 98.1° (Epoch: 10 December)

Event Time Altitude Azimuth Distance (km) Brightness Sun altitude
Rises 19:31:30 0° 180° (S) 3,028 6.4 -4.8°
Reaches altitude 10° 19:33:48 10° 186° (S) 2,117 5.7 -5.3°
Maximum altitude 19:38:16 47° 260° (W) 898 4.3 -6.2°
Drops below altitude 10° 19:42:46 10° 335° (NNW) 2,131 5.9 -7.2°
Sets 19:45:05 0° 341° (NNW) 3,050 6.7 -7.6°
